Location: ????????
(55.3975°N, 38.2844°E)
Time: 04:36:33
(UTC+00:00)

BlueWalker 3 - Pass Details

Date: 16 August 2024
Orbit: 476 x 487 km, 53.2° (Epoch: 08 September)

Event Time Altitude Azimuth Distance (km) Brightness Sun altitude
Exits shadow 01:04:21 - 272° (W) 2,150 4.7 -7.8°
Reaches altitude 10° 01:05:30 10° 269° (W) 1,688 4.1 -7.7°
Maximum altitude 01:09:15 57° 191° (S) 587 2.0 -7.3°
Drops below altitude 10° 01:13:00 10° 112° (ESE) 1,688 5.1 -6.8°
Sets 01:15:11 0° 109° (ESE) 2,569 6.1 -6.6°
